GEFSNE_prec_meanprecacc_084.txt.gz
Total_Precipitation_Accumulation
0.36 0.49 0.51 0.41 0.38 0.39 0.38 0.43 0.56 0.54 0.57 0.68 0.84 0.90 0.84 0.85 0.77 0.65 0.48 0.43 0.38 0.34 0.33 0.34 0.35 0.38 0.43 0.48 0.53 0.64 0.75 0.79 0.86 1.00 1.19 1.41 1.60 1.77
0.37 0.43 0.54 0.58 0.51 0.48 0.48 0.53 0.66 0.66 0.66 0.72 0.85 0.88 0.77 0.62 0.57 0.58 0.49 0.47 0.42 0.34 0.29 0.29 0.31 0.32 0.31 0.34 0.33 0.34 0.38 0.43 0.48 0.57 0.65 0.78 0.95 1.23
0.51 0.51 0.50 0.62 0.70 0.65 0.63 0.64 0.68 0.74 0.73 0.70 0.83 0.87 0.76 0.57 0.50 0.51 0.52 0.53 0.44 0.39 0.32 0.28 0.29 0.30 0.30 0.31 0.32 0.30 0.28 0.28 0.29 0.33 0.38 0.43 0.49 0.56
0.55 0.71 0.72 0.67 0.65 0.64 0.63 0.64 0.70 0.81 0.82 0.73 0.78 0.86 0.82 0.72 0.61 0.52 0.45 0.46 0.49 0.49 0.42 0.36 0.32 0.31 0.29 0.29 0.29 0.29 0.30 0.29 0.26 0.24 0.24 0.26 0.29 0.33
0.38 0.61 0.80 0.93 0.86 0.67 0.58 0.56 0.64 0.79 0.88 0.83 0.83 0.95 0.98 0.88 0.72 0.56 0.46 0.43 0.42 0.45 0.46 0.41 0.36 0.34 0.32 0.29 0.28 0.27 0.24 0.23 0.23 0.22 0.20 0.19 0.19 0.20
0.26 0.36 0.49 0.70 0.86 0.92 0.79 0.66 0.65 0.73 0.81 0.85 0.96 1.18 1.21 1.09 0.84 0.66 0.58 0.49 0.44 0.38 0.37 0.37 0.36 0.33 0.31 0.31 0.28 0.25 0.24 0.22 0.21 0.22 0.21 0.19 0.18 0.17
0.21 0.26 0.29 0.37 0.50 0.68 0.79 0.84 0.82 0.76 0.80 0.87 1.10 1.52 1.55 1.29 0.92 0.74 0.67 0.64 0.54 0.46 0.39 0.32 0.30 0.27 0.26 0.29 0.31 0.29 0.26 0.23 0.21 0.20 0.20 0.20 0.19 0.18
0.29 0.29 0.26 0.25 0.29 0.39 0.52 0.66 0.81 0.84 0.83 0.88 1.08 1.39 1.55 1.44 1.19 0.99 0.77 0.64 0.58 0.54 0.48 0.44 0.39 0.34 0.29 0.25 0.27 0.28 0.28 0.25 0.22 0.20 0.18 0.18 0.18 0.18
0.38 0.42 0.29 0.19 0.26 0.32 0.39 0.45 0.52 0.63 0.76 0.84 0.98 1.18 1.47 1.60 1.45 1.09 0.92 0.82 0.65 0.59 0.57 0.54 0.51 0.45 0.39 0.34 0.36 0.30 0.29 0.28 0.25 0.22 0.20 0.18 0.16 0.16
0.39 0.43 0.41 0.33 0.33 0.37 0.41 0.40 0.39 0.40 0.47 0.60 0.73 0.96 1.25 1.57 1.72 1.48 1.27 1.12 0.91 0.78 0.64 0.59 0.59 0.52 0.45 0.40 0.43 0.37 0.31 0.31 0.30 0.26 0.23 0.22 0.20 0.18
0.39 0.43 0.47 0.44 0.34 0.29 0.34 0.35 0.36 0.36 0.35 0.41 0.53 0.71 0.97 1.27 1.62 1.74 1.45 1.11 0.96 0.80 0.67 0.58 0.54 0.58 0.57 0.46 0.44 0.47 0.39 0.34 0.33 0.32 0.29 0.27 0.24 0.24
0.54 0.57 0.52 0.45 0.38 0.26 0.29 0.34 0.32 0.31 0.37 0.39 0.41 0.49 0.64 0.89 1.23 1.43 1.42 1.13 0.89 0.78 0.57 0.51 0.49 0.52 0.57 0.50 0.40 0.39 0.39 0.40 0.40 0.36 0.35 0.34 0.33 0.25
0.60 0.70 0.67 0.53 0.38 0.28 0.26 0.29 0.27 0.32 0.40 0.43 0.45 0.49 0.63 0.80 0.97 1.19 1.31 1.22 0.96 0.70 0.57 0.53 0.45 0.46 0.47 0.44 0.42 0.38 0.35 0.35 0.35 0.37 0.38 0.39 0.41 0.35
0.61 0.78 0.83 0.68 0.50 0.37 0.29 0.25 0.23 0.24 0.31 0.37 0.39 0.41 0.49 0.62 0.80 1.06 1.28 1.28 1.13 0.89 0.72 0.67 0.58 0.48 0.41 0.35 0.34 0.36 0.36 0.34 0.34 0.33 0.33 0.43 0.43 0.45
0.56 0.81 0.91 0.79 0.66 0.52 0.41 0.36 0.30 0.26 0.29 0.31 0.30 0.30 0.35 0.47 0.68 1.02 1.36 1.48 1.38 1.13 0.94 0.78 0.66 0.60 0.56 0.42 0.30 0.27 0.31 0.34 0.33 0.33 0.35 0.40 0.40 0.40
0.45 0.59 0.74 0.80 0.74 0.68 0.58 0.46 0.38 0.34 0.32 0.34 0.33 0.37 0.45 0.56 0.69 0.84 1.15 1.39 1.41 1.23 1.04 0.89 0.77 0.73 0.66 0.54 0.41 0.29 0.25 0.29 0.32 0.33 0.37 0.41 0.45 0.44
0.45 0.58 0.74 0.87 0.89 0.86 0.82 0.72 0.61 0.54 0.48 0.45 0.51 0.52 0.57 0.64 0.67 0.77 0.97 1.17 1.17 1.06 0.97 0.95 0.94 0.88 0.80 0.75 0.61 0.40 0.29 0.26 0.27 0.32 0.39 0.44 0.47 0.50
0.35 0.52 0.69 0.86 0.99 1.04 1.07 1.01 0.90 0.81 0.72 0.69 0.71 0.68 0.67 0.72 0.73 0.75 0.88 1.02 1.03 0.98 0.94 0.88 0.94 1.03 0.96 0.80 0.64 0.49 0.36 0.29 0.29 0.35 0.39 0.41 0.43 0.45
0.23 0.42 0.57 0.73 0.91 1.05 1.09 1.05 0.98 0.95 0.96 0.94 0.93 0.89 0.82 0.80 0.83 0.81 0.82 0.94 1.00 0.98 0.98 0.95 0.92 0.90 0.84 0.65 0.47 0.42 0.41 0.37 0.39 0.42 0.44 0.40 0.36 0.38
0.23 0.38 0.52 0.66 0.81 0.98 1.04 1.04 1.06 1.08 1.08 1.04 1.05 1.04 1.01 0.94 0.93 0.90 0.87 0.87 0.96 1.03 1.03 1.00 0.90 0.76 0.64 0.57 0.52 0.46 0.43 0.48 0.50 0.47 0.47 0.48 0.44 0.46
0.32 0.38 0.45 0.57 0.75 0.92 1.05 1.10 1.12 1.11 1.10 1.11 1.11 1.11 1.13 1.06 0.96 0.95 0.99 0.96 0.94 0.98 0.93 0.81 0.77 0.85 0.90 0.88 0.75 0.54 0.45 0.44 0.51 0.53 0.56 0.61 0.56 0.53
0.47 0.51 0.54 0.60 0.78 0.94 1.06 1.15 1.20 1.17 1.13 1.14 1.15 1.15 1.14 1.11 1.00 0.98 1.06 1.04 0.91 0.84 0.84 0.88 1.03 1.15 1.09 0.93 0.68 0.55 0.53 0.54 0.56 0.58 0.58 0.56 0.50 0.43
0.63 0.60 0.55 0.59 0.74 0.90 1.00 1.11 1.20 1.19 1.13 1.10 1.16 1.20 1.13 1.06 1.01 1.02 1.06 1.11 1.05 0.98 1.01 1.04 1.10 1.12 1.05 0.98 0.88 0.72 0.60 0.61 0.64 0.58 0.45 0.40 0.38 0.37

GEFSNE_prec_meanprecacc_090.txt.gz
Total_Precipitation_Accumulation
0.36 0.49 0.51 0.41 0.38 0.39 0.38 0.43 0.56 0.54 0.57 0.68 0.84 0.90 0.84 0.85 0.77 0.65 0.48 0.43 0.38 0.34 0.33 0.34 0.35 0.38 0.43 0.48 0.53 0.64 0.75 0.80 0.86 1.00 1.20 1.43 1.63 1.81
0.37 0.43 0.54 0.58 0.51 0.48 0.48 0.53 0.66 0.66 0.66 0.72 0.85 0.88 0.77 0.62 0.57 0.58 0.49 0.47 0.42 0.34 0.29 0.29 0.31 0.32 0.31 0.34 0.33 0.34 0.38 0.43 0.49 0.57 0.66 0.79 0.96 1.24
0.51 0.51 0.50 0.62 0.70 0.65 0.63 0.64 0.68 0.74 0.73 0.70 0.83 0.87 0.76 0.57 0.50 0.51 0.52 0.53 0.44 0.39 0.32 0.28 0.29 0.30 0.30 0.31 0.32 0.30 0.28 0.28 0.29 0.33 0.38 0.43 0.49 0.56
0.55 0.71 0.72 0.67 0.65 0.64 0.63 0.64 0.70 0.81 0.82 0.73 0.78 0.86 0.82 0.72 0.61 0.52 0.45 0.46 0.49 0.49 0.42 0.36 0.32 0.31 0.29 0.29 0.29 0.29 0.30 0.29 0.26 0.24 0.24 0.26 0.29 0.33
0.38 0.62 0.80 0.94 0.86 0.67 0.58 0.56 0.64 0.79 0.88 0.83 0.83 0.95 0.98 0.88 0.72 0.56 0.46 0.43 0.42 0.45 0.46 0.41 0.36 0.34 0.32 0.29 0.28 0.27 0.24 0.23 0.23 0.22 0.20 0.19 0.19 0.20
0.26 0.36 0.49 0.70 0.87 0.92 0.79 0.66 0.66 0.73 0.82 0.85 0.96 1.18 1.21 1.09 0.84 0.66 0.58 0.49 0.44 0.38 0.37 0.37 0.36 0.33 0.31 0.31 0.28 0.25 0.24 0.22 0.21 0.22 0.21 0.19 0.18 0.17
0.22 0.27 0.29 0.38 0.51 0.69 0.80 0.86 0.84 0.77 0.80 0.87 1.10 1.52 1.55 1.29 0.93 0.74 0.67 0.64 0.54 0.46 0.39 0.32 0.30 0.27 0.26 0.29 0.31 0.29 0.26 0.23 0.21 0.20 0.20 0.20 0.19 0.18
0.32 0.32 0.29 0.27 0.31 0.41 0.54 0.68 0.83 0.86 0.85 0.90 1.09 1.40 1.55 1.44 1.20 0.99 0.77 0.64 0.58 0.54 0.48 0.44 0.39 0.34 0.29 0.25 0.27 0.28 0.28 0.25 0.22 0.20 0.18 0.18 0.18 0.18
0.42 0.46 0.33 0.22 0.29 0.34 0.41 0.48 0.55 0.66 0.78 0.87 0.99 1.19 1.47 1.61 1.46 1.09 0.92 0.82 0.66 0.59 0.57 0.54 0.51 0.45 0.39 0.34 0.36 0.30 0.29 0.28 0.25 0.22 0.20 0.18 0.16 0.16
0.43 0.47 0.45 0.36 0.35 0.39 0.44 0.42 0.41 0.42 0.49 0.62 0.74 0.97 1.26 1.58 1.73 1.49 1.28 1.12 0.92 0.79 0.64 0.59 0.59 0.52 0.45 0.40 0.43 0.37 0.31 0.31 0.30 0.26 0.23 0.22 0.20 0.18
0.43 0.47 0.50 0.46 0.37 0.31 0.36 0.37 0.37 0.37 0.37 0.43 0.54 0.72 0.97 1.28 1.63 1.75 1.46 1.12 0.96 0.80 0.68 0.58 0.54 0.58 0.57 0.46 0.44 0.47 0.39 0.34 0.33 0.32 0.29 0.27 0.24 0.24
0.59 0.63 0.57 0.49 0.41 0.28 0.30 0.35 0.33 0.32 0.38 0.40 0.42 0.49 0.65 0.90 1.24 1.43 1.43 1.13 0.89 0.78 0.58 0.51 0.50 0.52 0.57 0.50 0.40 0.39 0.39 0.40 0.40 0.36 0.35 0.34 0.33 0.25
0.63 0.73 0.70 0.55 0.40 0.30 0.27 0.30 0.27 0.32 0.40 0.44 0.45 0.49 0.63 0.80 0.97 1.19 1.32 1.23 0.97 0.71 0.57 0.53 0.46 0.47 0.47 0.44 0.42 0.38 0.35 0.35 0.35 0.37 0.38 0.39 0.41 0.35
0.63 0.80 0.85 0.69 0.52 0.38 0.30 0.26 0.24 0.25 0.31 0.37 0.39 0.42 0.49 0.62 0.80 1.06 1.28 1.29 1.14 0.90 0.73 0.69 0.60 0.49 0.42 0.36 0.34 0.36 0.36 0.34 0.34 0.33 0.34 0.43 0.44 0.45
0.58 0.82 0.93 0.80 0.67 0.52 0.42 0.36 0.31 0.26 0.29 0.32 0.30 0.30 0.35 0.47 0.68 1.02 1.36 1.48 1.38 1.13 0.95 0.78 0.67 0.62 0.58 0.44 0.31 0.28 0.32 0.35 0.33 0.33 0.36 0.40 0.40 0.40
0.48 0.61 0.76 0.82 0.75 0.69 0.58 0.47 0.38 0.34 0.33 0.34 0.33 0.37 0.45 0.56 0.69 0.84 1.15 1.39 1.41 1.23 1.04 0.90 0.78 0.74 0.69 0.56 0.43 0.30 0.26 0.30 0.32 0.34 0.38 0.42 0.46 0.45
0.46 0.58 0.75 0.87 0.89 0.86 0.83 0.72 0.61 0.54 0.48 0.45 0.51 0.52 0.58 0.64 0.67 0.77 0.97 1.17 1.18 1.06 0.97 0.96 0.94 0.89 0.81 0.76 0.63 0.41 0.30 0.27 0.27 0.34 0.41 0.45 0.48 0.51
0.35 0.52 0.69 0.87 0.99 1.04 1.07 1.01 0.90 0.81 0.72 0.69 0.71 0.68 0.67 0.72 0.73 0.75 0.88 1.03 1.04 0.99 0.94 0.88 0.95 1.03 0.97 0.81 0.65 0.50 0.37 0.30 0.30 0.37 0.43 0.44 0.44 0.46
0.23 0.42 0.57 0.73 0.91 1.05 1.09 1.06 0.98 0.96 0.96 0.94 0.93 0.89 0.82 0.81 0.84 0.82 0.83 0.95 1.01 0.98 0.99 0.96 0.93 0.93 0.88 0.67 0.48 0.44 0.45 0.40 0.43 0.46 0.48 0.43 0.38 0.40
0.23 0.38 0.52 0.66 0.81 0.98 1.04 1.04 1.07 1.08 1.08 1.04 1.05 1.05 1.01 0.95 0.94 0.91 0.87 0.88 0.97 1.04 1.05 1.02 0.93 0.80 0.69 0.60 0.55 0.47 0.45 0.52 0.54 0.50 0.51 0.52 0.47 0.49
0.32 0.38 0.46 0.57 0.75 0.92 1.06 1.10 1.13 1.12 1.10 1.12 1.11 1.12 1.14 1.08 0.98 0.97 1.01 0.99 0.97 1.02 0.97 0.85 0.80 0.89 0.95 0.94 0.79 0.57 0.47 0.48 0.56 0.59 0.62 0.68 0.62 0.58
0.47 0.52 0.54 0.61 0.78 0.94 1.07 1.16 1.21 1.18 1.14 1.15 1.16 1.16 1.16 1.13 1.03 1.02 1.09 1.07 0.94 0.87 0.87 0.91 1.06 1.18 1.15 1.01 0.75 0.60 0.57 0.60 0.62 0.66 0.67 0.67 0.62 0.53
0.63 0.60 0.56 0.59 0.74 0.90 1.01 1.12 1.21 1.20 1.14 1.11 1.17 1.22 1.15 1.10 1.05 1.06 1.09 1.13 1.08 1.01 1.04 1.07 1.13 1.16 1.11 1.06 0.96 0.80 0.68 0.68 0.71 0.65 0.51 0.47 0.46 0.45

GEFSNE_prec_meanprecacc_096.txt.gz
Total_Precipitation_Accumulation
0.36 0.49 0.51 0.41 0.38 0.39 0.38 0.43 0.57 0.54 0.57 0.69 0.84 0.90 0.84 0.85 0.77 0.65 0.48 0.43 0.38 0.34 0.33 0.34 0.36 0.38 0.43 0.48 0.53 0.64 0.75 0.80 0.86 1.01 1.20 1.43 1.63 1.83
0.37 0.43 0.54 0.58 0.51 0.48 0.48 0.53 0.66 0.66 0.66 0.72 0.85 0.88 0.77 0.62 0.57 0.58 0.49 0.47 0.42 0.34 0.29 0.29 0.31 0.32 0.31 0.34 0.33 0.34 0.38 0.43 0.49 0.57 0.66 0.79 0.97 1.25
0.51 0.51 0.51 0.62 0.70 0.65 0.63 0.64 0.68 0.74 0.73 0.70 0.83 0.87 0.76 0.57 0.50 0.52 0.52 0.53 0.44 0.39 0.32 0.28 0.29 0.30 0.30 0.31 0.32 0.30 0.28 0.28 0.29 0.33 0.38 0.43 0.50 0.57
0.55 0.71 0.72 0.67 0.65 0.64 0.64 0.65 0.70 0.82 0.82 0.74 0.79 0.87 0.83 0.72 0.61 0.52 0.45 0.46 0.49 0.49 0.42 0.36 0.32 0.31 0.29 0.29 0.29 0.29 0.30 0.29 0.26 0.24 0.24 0.26 0.29 0.33
0.40 0.63 0.81 0.95 0.87 0.69 0.60 0.58 0.65 0.80 0.90 0.84 0.83 0.96 0.99 0.89 0.72 0.57 0.46 0.43 0.42 0.45 0.46 0.41 0.36 0.34 0.32 0.29 0.28 0.27 0.24 0.23 0.23 0.22 0.20 0.19 0.19 0.20
0.28 0.38 0.51 0.72 0.89 0.95 0.82 0.69 0.68 0.76 0.85 0.87 0.98 1.20 1.23 1.11 0.85 0.67 0.58 0.50 0.44 0.38 0.37 0.37 0.36 0.33 0.31 0.31 0.28 0.25 0.24 0.22 0.21 0.22 0.21 0.19 0.18 0.17
0.26 0.29 0.31 0.39 0.53 0.71 0.82 0.89 0.87 0.80 0.84 0.91 1.13 1.55 1.58 1.33 0.96 0.76 0.69 0.65 0.56 0.46 0.40 0.32 0.30 0.27 0.26 0.29 0.31 0.29 0.26 0.23 0.21 0.20 0.20 0.20 0.19 0.18
0.36 0.36 0.32 0.30 0.34 0.44 0.56 0.70 0.85 0.89 0.89 0.94 1.13 1.43 1.59 1.49 1.24 1.03 0.80 0.66 0.60 0.56 0.50 0.45 0.40 0.35 0.29 0.25 0.27 0.28 0.28 0.25 0.22 0.20 0.18 0.18 0.18 0.18
0.47 0.51 0.37 0.26 0.33 0.38 0.45 0.51 0.58 0.68 0.80 0.89 1.02 1.22 1.50 1.64 1.48 1.11 0.94 0.84 0.67 0.60 0.59 0.55 0.52 0.46 0.39 0.35 0.36 0.30 0.29 0.28 0.25 0.22 0.20 0.18 0.16 0.16
0.48 0.52 0.49 0.39 0.38 0.42 0.46 0.44 0.43 0.44 0.51 0.63 0.76 0.98 1.27 1.59 1.74 1.50 1.29 1.13 0.92 0.79 0.65 0.60 0.59 0.53 0.45 0.40 0.43 0.37 0.32 0.31 0.30 0.26 0.23 0.22 0.20 0.18
0.47 0.50 0.52 0.48 0.39 0.32 0.37 0.38 0.38 0.38 0.38 0.43 0.54 0.73 0.98 1.29 1.63 1.76 1.47 1.12 0.97 0.81 0.68 0.59 0.54 0.58 0.57 0.46 0.44 0.47 0.40 0.35 0.33 0.32 0.29 0.27 0.24 0.24
0.62 0.65 0.59 0.51 0.42 0.30 0.31 0.36 0.35 0.33 0.38 0.40 0.42 0.50 0.65 0.90 1.24 1.44 1.44 1.14 0.91 0.79 0.58 0.52 0.50 0.53 0.58 0.51 0.40 0.39 0.40 0.41 0.40 0.37 0.35 0.34 0.33 0.25
0.69 0.78 0.74 0.59 0.42 0.31 0.29 0.31 0.28 0.33 0.41 0.45 0.46 0.51 0.65 0.82 0.99 1.21 1.34 1.25 1.00 0.73 0.58 0.55 0.48 0.48 0.49 0.45 0.42 0.39 0.36 0.35 0.35 0.37 0.38 0.40 0.41 0.35
0.66 0.83 0.87 0.71 0.53 0.39 0.32 0.28 0.25 0.26 0.33 0.38 0.41 0.43 0.51 0.64 0.82 1.08 1.29 1.30 1.15 0.91 0.74 0.70 0.62 0.51 0.44 0.38 0.36 0.37 0.37 0.35 0.35 0.33 0.34 0.43 0.44 0.45
0.59 0.84 0.94 0.81 0.68 0.54 0.43 0.38 0.32 0.28 0.30 0.33 0.31 0.31 0.36 0.48 0.69 1.02 1.37 1.49 1.38 1.14 0.95 0.79 0.69 0.63 0.60 0.45 0.32 0.29 0.33 0.35 0.33 0.34 0.36 0.41 0.41 0.41
0.48 0.62 0.77 0.83 0.76 0.70 0.59 0.47 0.38 0.34 0.33 0.35 0.34 0.37 0.46 0.57 0.70 0.84 1.16 1.39 1.42 1.24 1.04 0.91 0.79 0.76 0.70 0.57 0.44 0.32 0.27 0.31 0.33 0.35 0.40 0.43 0.47 0.46
0.46 0.59 0.75 0.87 0.90 0.87 0.83 0.73 0.62 0.55 0.49 0.46 0.52 0.54 0.59 0.65 0.68 0.77 0.98 1.18 1.18 1.07 0.98 0.96 0.95 0.91 0.83 0.78 0.65 0.42 0.32 0.29 0.29 0.36 0.45 0.48 0.50 0.53
0.35 0.52 0.70 0.87 1.00 1.04 1.08 1.02 0.91 0.82 0.73 0.71 0.73 0.70 0.69 0.73 0.75 0.77 0.90 1.05 1.05 1.00 0.95 0.89 0.96 1.05 0.98 0.82 0.66 0.53 0.40 0.33 0.34 0.42 0.49 0.49 0.47 0.48
0.24 0.42 0.58 0.73 0.91 1.06 1.09 1.06 0.98 0.96 0.97 0.95 0.94 0.90 0.84 0.83 0.86 0.84 0.85 0.97 1.03 1.00 1.00 0.97 0.95 0.95 0.90 0.69 0.49 0.46 0.48 0.43 0.47 0.50 0.52 0.49 0.42 0.43
0.23 0.39 0.52 0.66 0.81 0.99 1.04 1.05 1.07 1.09 1.10 1.05 1.07 1.07 1.03 0.97 0.96 0.94 0.90 0.90 0.99 1.06 1.06 1.04 0.95 0.83 0.74 0.64 0.57 0.49 0.46 0.55 0.58 0.55 0.56 0.58 0.53 0.53
0.32 0.38 0.46 0.58 0.75 0.93 1.06 1.11 1.14 1.13 1.12 1.13 1.13 1.14 1.16 1.10 1.00 0.99 1.03 1.01 0.99 1.04 0.98 0.86 0.82 0.91 0.98 0.98 0.83 0.59 0.49 0.50 0.60 0.64 0.68 0.75 0.68 0.64
0.47 0.52 0.55 0.61 0.79 0.95 1.08 1.17 1.22 1.19 1.15 1.16 1.17 1.18 1.18 1.15 1.05 1.04 1.11 1.09 0.97 0.90 0.90 0.93 1.08 1.21 1.18 1.05 0.80 0.64 0.60 0.63 0.66 0.69 0.70 0.72 0.69 0.60
0.63 0.61 0.56 0.60 0.75 0.91 1.02 1.13 1.22 1.21 1.14 1.12 1.19 1.23 1.16 1.11 1.06 1.07 1.11 1.16 1.10 1.04 1.06 1.09 1.15 1.18 1.14 1.10 1.00 0.84 0.72 0.71 0.74 0.69 0.57 0.53 0.51 0.50

GEFSNE_prec_meanprecacc_102.txt.gz
Total_Precipitation_Accumulation
0.36 0.49 0.51 0.41 0.38 0.39 0.38 0.43 0.57 0.55 0.57 0.69 0.84 0.90 0.84 0.85 0.77 0.65 0.49 0.43 0.38 0.34 0.33 0.34 0.36 0.38 0.43 0.48 0.53 0.64 0.75 0.80 0.86 1.01 1.20 1.43 1.64 1.84
0.38 0.43 0.54 0.58 0.51 0.48 0.48 0.53 0.66 0.66 0.67 0.72 0.85 0.88 0.77 0.62 0.57 0.58 0.49 0.48 0.42 0.34 0.29 0.29 0.31 0.32 0.31 0.34 0.34 0.34 0.38 0.43 0.49 0.57 0.66 0.79 0.97 1.25
0.52 0.52 0.51 0.63 0.71 0.65 0.63 0.64 0.68 0.74 0.73 0.70 0.84 0.87 0.76 0.58 0.51 0.52 0.53 0.54 0.45 0.40 0.33 0.29 0.29 0.30 0.30 0.31 0.32 0.31 0.29 0.28 0.29 0.33 0.38 0.43 0.50 0.57
0.58 0.74 0.75 0.70 0.69 0.66 0.66 0.67 0.72 0.84 0.85 0.76 0.82 0.90 0.86 0.76 0.66 0.55 0.46 0.47 0.50 0.51 0.43 0.36 0.32 0.31 0.29 0.29 0.29 0.29 0.30 0.29 0.27 0.24 0.24 0.26 0.29 0.33
0.45 0.69 0.88 1.01 0.93 0.75 0.66 0.63 0.71 0.85 0.96 0.89 0.88 1.03 1.04 0.95 0.80 0.62 0.49 0.46 0.43 0.46 0.48 0.42 0.37 0.34 0.32 0.29 0.28 0.27 0.25 0.23 0.23 0.22 0.20 0.19 0.19 0.20
0.36 0.46 0.58 0.79 0.95 1.01 0.88 0.76 0.75 0.82 0.92 0.94 1.04 1.27 1.31 1.19 0.93 0.74 0.64 0.55 0.48 0.40 0.41 0.42 0.39 0.34 0.32 0.31 0.28 0.25 0.24 0.22 0.22 0.22 0.21 0.19 0.18 0.17
0.36 0.38 0.38 0.45 0.58 0.75 0.86 0.94 0.92 0.85 0.90 0.97 1.20 1.62 1.65 1.41 1.03 0.84 0.76 0.71 0.62 0.50 0.44 0.36 0.34 0.31 0.30 0.31 0.32 0.31 0.26 0.24 0.21 0.20 0.20 0.20 0.19 0.18
0.45 0.43 0.39 0.35 0.37 0.47 0.59 0.73 0.88 0.92 0.93 1.00 1.19 1.50 1.66 1.55 1.30 1.08 0.85 0.71 0.64 0.59 0.55 0.48 0.41 0.37 0.31 0.27 0.32 0.32 0.30 0.26 0.23 0.20 0.18 0.18 0.18 0.18
0.54 0.58 0.43 0.30 0.37 0.42 0.49 0.53 0.60 0.70 0.82 0.91 1.05 1.25 1.53 1.67 1.50 1.13 0.96 0.87 0.69 0.62 0.62 0.57 0.53 0.47 0.39 0.35 0.38 0.31 0.30 0.30 0.26 0.23 0.21 0.18 0.16 0.16
0.54 0.57 0.54 0.43 0.42 0.46 0.49 0.47 0.46 0.46 0.53 0.65 0.77 1.00 1.28 1.60 1.75 1.51 1.30 1.14 0.93 0.79 0.66 0.61 0.60 0.54 0.45 0.40 0.44 0.38 0.32 0.31 0.30 0.26 0.23 0.22 0.20 0.18
0.50 0.53 0.56 0.51 0.43 0.35 0.40 0.41 0.40 0.41 0.40 0.45 0.55 0.73 0.98 1.29 1.64 1.76 1.48 1.14 0.98 0.81 0.69 0.60 0.55 0.59 0.57 0.46 0.45 0.47 0.40 0.35 0.33 0.32 0.29 0.27 0.24 0.24
0.66 0.69 0.63 0.54 0.45 0.33 0.34 0.38 0.37 0.34 0.40 0.41 0.43 0.50 0.65 0.90 1.25 1.44 1.44 1.15 0.91 0.80 0.59 0.53 0.51 0.53 0.58 0.51 0.40 0.39 0.40 0.41 0.40 0.37 0.35 0.34 0.33 0.25
0.73 0.81 0.77 0.62 0.45 0.34 0.31 0.33 0.30 0.34 0.42 0.46 0.48 0.52 0.65 0.83 0.99 1.22 1.35 1.26 1.01 0.74 0.59 0.56 0.48 0.49 0.49 0.45 0.43 0.39 0.36 0.36 0.36 0.38 0.39 0.40 0.41 0.35
0.67 0.84 0.88 0.72 0.54 0.40 0.32 0.28 0.26 0.27 0.33 0.39 0.42 0.44 0.52 0.65 0.83 1.09 1.30 1.31 1.17 0.92 0.74 0.71 0.63 0.53 0.46 0.39 0.36 0.37 0.37 0.35 0.35 0.33 0.34 0.44 0.45 0.46
0.59 0.84 0.94 0.81 0.68 0.54 0.43 0.38 0.32 0.28 0.31 0.33 0.31 0.32 0.37 0.49 0.70 1.04 1.38 1.51 1.40 1.15 0.96 0.81 0.71 0.65 0.62 0.47 0.33 0.29 0.33 0.35 0.33 0.34 0.37 0.41 0.41 0.42
0.48 0.62 0.77 0.83 0.76 0.70 0.59 0.47 0.39 0.35 0.33 0.35 0.35 0.38 0.46 0.58 0.71 0.86 1.17 1.41 1.43 1.24 1.05 0.92 0.81 0.78 0.73 0.59 0.46 0.33 0.28 0.31 0.33 0.35 0.41 0.44 0.48 0.47
0.46 0.59 0.75 0.88 0.90 0.87 0.84 0.73 0.62 0.56 0.49 0.47 0.53 0.54 0.59 0.66 0.69 0.78 0.99 1.19 1.20 1.08 0.98 0.97 0.96 0.92 0.85 0.81 0.67 0.44 0.34 0.31 0.31 0.38 0.48 0.50 0.51 0.55
0.35 0.52 0.70 0.87 1.00 1.05 1.08 1.02 0.92 0.82 0.74 0.71 0.73 0.71 0.70 0.74 0.76 0.78 0.91 1.06 1.07 1.01 0.96 0.90 0.97 1.07 1.00 0.84 0.68 0.55 0.42 0.36 0.36 0.45 0.52 0.52 0.49 0.50
0.24 0.42 0.58 0.73 0.91 1.06 1.09 1.06 0.98 0.97 0.97 0.96 0.95 0.91 0.85 0.84 0.87 0.85 0.86 0.98 1.04 1.02 1.02 0.99 0.97 0.98 0.93 0.71 0.50 0.47 0.50 0.46 0.49 0.52 0.55 0.53 0.45 0.45
0.23 0.39 0.52 0.66 0.81 0.99 1.05 1.05 1.07 1.10 1.10 1.06 1.07 1.07 1.04 0.98 0.97 0.95 0.91 0.92 1.01 1.08 1.08 1.05 0.97 0.87 0.78 0.68 0.60 0.50 0.47 0.56 0.61 0.58 0.58 0.61 0.56 0.55
0.32 0.38 0.46 0.58 0.75 0.93 1.07 1.12 1.14 1.14 1.13 1.14 1.14 1.15 1.17 1.11 1.01 1.00 1.04 1.02 1.00 1.06 1.00 0.88 0.84 0.94 1.01 1.02 0.87 0.61 0.49 0.52 0.62 0.67 0.71 0.78 0.71 0.67
0.47 0.52 0.55 0.62 0.79 0.96 1.08 1.18 1.23 1.20 1.16 1.17 1.18 1.18 1.18 1.16 1.06 1.05 1.13 1.11 0.98 0.92 0.92 0.94 1.09 1.23 1.21 1.09 0.83 0.66 0.61 0.64 0.67 0.70 0.72 0.74 0.72 0.63
0.63 0.61 0.56 0.60 0.75 0.91 1.02 1.13 1.22 1.21 1.15 1.13 1.19 1.24 1.17 1.11 1.07 1.08 1.12 1.17 1.12 1.05 1.08 1.11 1.17 1.20 1.16 1.12 1.03 0.86 0.74 0.73 0.76 0.71 0.59 0.54 0.52 0.51

GEFSNE_prec_meanprecacc_108.txt.gz
Total_Precipitation_Accumulation
0.36 0.50 0.51 0.41 0.38 0.39 0.38 0.43 0.57 0.55 0.58 0.69 0.85 0.91 0.85 0.87 0.78 0.65 0.49 0.43 0.38 0.34 0.33 0.34 0.36 0.38 0.43 0.48 0.53 0.64 0.75 0.80 0.86 1.01 1.21 1.44 1.65 1.85
0.38 0.44 0.54 0.58 0.51 0.48 0.48 0.53 0.66 0.66 0.67 0.72 0.86 0.89 0.78 0.63 0.58 0.59 0.51 0.49 0.43 0.35 0.29 0.30 0.32 0.33 0.32 0.34 0.34 0.34 0.38 0.43 0.49 0.57 0.66 0.79 0.97 1.25
0.52 0.52 0.52 0.63 0.71 0.65 0.64 0.64 0.69 0.74 0.73 0.71 0.84 0.88 0.77 0.58 0.52 0.54 0.55 0.56 0.47 0.42 0.34 0.30 0.30 0.31 0.30 0.31 0.33 0.31 0.29 0.29 0.29 0.33 0.38 0.44 0.50 0.57
0.60 0.75 0.76 0.71 0.69 0.67 0.66 0.67 0.73 0.85 0.85 0.77 0.83 0.90 0.87 0.77 0.67 0.57 0.48 0.49 0.53 0.54 0.46 0.38 0.33 0.32 0.30 0.29 0.30 0.30 0.30 0.29 0.27 0.24 0.24 0.26 0.29 0.33
0.48 0.71 0.90 1.03 0.94 0.77 0.68 0.65 0.72 0.86 0.97 0.90 0.89 1.04 1.05 0.97 0.82 0.64 0.51 0.49 0.45 0.48 0.49 0.44 0.39 0.36 0.33 0.30 0.29 0.28 0.25 0.24 0.24 0.23 0.20 0.20 0.19 0.20
0.41 0.50 0.61 0.82 0.98 1.04 0.92 0.79 0.77 0.84 0.94 0.95 1.05 1.28 1.33 1.21 0.96 0.77 0.66 0.56 0.49 0.41 0.42 0.43 0.40 0.36 0.34 0.32 0.29 0.26 0.25 0.23 0.23 0.23 0.21 0.20 0.18 0.17
0.44 0.44 0.41 0.49 0.62 0.79 0.89 0.96 0.94 0.88 0.92 0.99 1.21 1.63 1.67 1.43 1.05 0.86 0.78 0.73 0.63 0.51 0.45 0.38 0.35 0.32 0.31 0.33 0.34 0.32 0.28 0.25 0.22 0.21 0.21 0.20 0.19 0.19
0.54 0.51 0.43 0.39 0.41 0.50 0.61 0.75 0.90 0.94 0.94 1.01 1.21 1.51 1.67 1.57 1.31 1.09 0.86 0.73 0.66 0.61 0.56 0.48 0.42 0.38 0.32 0.28 0.33 0.33 0.32 0.28 0.24 0.21 0.19 0.18 0.19 0.18
0.62 0.64 0.48 0.34 0.40 0.44 0.51 0.55 0.61 0.71 0.83 0.92 1.06 1.26 1.54 1.68 1.51 1.14 0.97 0.88 0.70 0.63 0.63 0.57 0.53 0.48 0.40 0.36 0.39 0.32 0.31 0.31 0.27 0.24 0.21 0.19 0.17 0.17
0.58 0.61 0.57 0.46 0.44 0.47 0.50 0.48 0.46 0.47 0.53 0.65 0.78 1.00 1.28 1.60 1.76 1.51 1.31 1.14 0.93 0.80 0.67 0.61 0.61 0.54 0.46 0.41 0.44 0.38 0.32 0.31 0.30 0.26 0.24 0.22 0.20 0.18
0.53 0.56 0.58 0.52 0.45 0.37 0.41 0.42 0.41 0.42 0.41 0.46 0.56 0.74 0.98 1.29 1.64 1.76 1.48 1.14 0.98 0.81 0.69 0.60 0.55 0.59 0.57 0.47 0.45 0.48 0.40 0.35 0.33 0.33 0.29 0.27 0.24 0.24
0.68 0.71 0.65 0.56 0.47 0.34 0.35 0.40 0.39 0.36 0.41 0.43 0.44 0.52 0.66 0.91 1.25 1.44 1.44 1.15 0.92 0.80 0.59 0.53 0.51 0.53 0.58 0.51 0.40 0.40 0.40 0.41 0.40 0.37 0.35 0.34 0.34 0.25
0.74 0.82 0.78 0.63 0.45 0.34 0.31 0.34 0.31 0.35 0.43 0.47 0.48 0.52 0.66 0.83 1.00 1.22 1.35 1.26 1.01 0.74 0.59 0.56 0.48 0.49 0.49 0.46 0.43 0.39 0.36 0.36 0.36 0.38 0.39 0.40 0.42 0.35
0.68 0.84 0.88 0.72 0.54 0.40 0.32 0.28 0.26 0.27 0.33 0.39 0.42 0.44 0.52 0.65 0.83 1.09 1.31 1.32 1.17 0.92 0.75 0.71 0.63 0.53 0.46 0.40 0.36 0.37 0.37 0.35 0.35 0.33 0.34 0.44 0.45 0.46
0.60 0.84 0.94 0.81 0.68 0.54 0.43 0.38 0.32 0.28 0.31 0.33 0.31 0.32 0.37 0.49 0.70 1.04 1.38 1.51 1.40 1.15 0.96 0.81 0.71 0.66 0.63 0.48 0.34 0.29 0.33 0.35 0.33 0.34 0.37 0.41 0.42 0.42
0.49 0.62 0.77 0.83 0.76 0.70 0.59 0.48 0.39 0.35 0.33 0.35 0.35 0.38 0.46 0.58 0.71 0.86 1.17 1.41 1.43 1.24 1.05 0.92 0.81 0.79 0.73 0.59 0.46 0.33 0.28 0.31 0.33 0.35 0.41 0.44 0.48 0.47
0.46 0.59 0.75 0.88 0.90 0.87 0.84 0.73 0.62 0.56 0.49 0.47 0.53 0.54 0.59 0.66 0.69 0.78 0.99 1.19 1.20 1.08 0.98 0.97 0.96 0.93 0.85 0.81 0.67 0.44 0.34 0.31 0.31 0.38 0.48 0.50 0.51 0.55
0.35 0.52 0.70 0.87 1.00 1.05 1.08 1.02 0.92 0.82 0.74 0.71 0.73 0.71 0.70 0.74 0.76 0.78 0.91 1.06 1.07 1.01 0.96 0.90 0.97 1.07 1.01 0.84 0.68 0.55 0.42 0.36 0.37 0.45 0.52 0.53 0.50 0.50
0.24 0.42 0.58 0.73 0.91 1.06 1.09 1.06 0.98 0.97 0.97 0.96 0.95 0.91 0.85 0.84 0.87 0.85 0.86 0.98 1.05 1.02 1.02 0.99 0.97 0.98 0.94 0.71 0.51 0.48 0.51 0.46 0.50 0.53 0.56 0.55 0.48 0.47
0.23 0.39 0.52 0.66 0.81 0.99 1.05 1.05 1.07 1.10 1.10 1.06 1.07 1.07 1.04 0.98 0.97 0.95 0.91 0.92 1.01 1.08 1.08 1.05 0.97 0.87 0.79 0.70 0.61 0.51 0.49 0.59 0.64 0.61 0.62 0.64 0.59 0.57
0.32 0.38 0.46 0.58 0.75 0.93 1.07 1.12 1.14 1.14 1.13 1.14 1.14 1.15 1.17 1.11 1.01 1.00 1.04 1.02 1.00 1.06 1.00 0.88 0.85 0.95 1.02 1.03 0.88 0.62 0.50 0.53 0.64 0.69 0.72 0.80 0.73 0.68
0.48 0.52 0.55 0.62 0.79 0.96 1.08 1.18 1.23 1.20 1.16 1.17 1.18 1.18 1.18 1.16 1.06 1.05 1.13 1.11 0.98 0.92 0.92 0.94 1.10 1.24 1.21 1.10 0.84 0.66 0.61 0.64 0.68 0.71 0.73 0.76 0.75 0.65
0.64 0.61 0.56 0.60 0.75 0.91 1.02 1.13 1.22 1.21 1.15 1.13 1.19 1.24 1.17 1.11 1.07 1.08 1.12 1.17 1.12 1.05 1.08 1.11 1.17 1.20 1.16 1.12 1.03 0.87 0.74 0.74 0.76 0.71 0.59 0.55 0.53 0.52